SCOUT X-4 DEB, 40592

Orbit data source: Space-Track

SCOUT X-4 DEB, 40592 is space debris in LEO originally from a launch on Tue, 25 Aug 1964 UTC launched from the Air Force Western Test Range (AFWTR). Debris objects in space refer to the collection of defunct objects orbiting the Earth. Examples of debris include non-operational satellites, rocket bodies, and fragments generated from explosions, collisions, or faulty payload assembly.

Not visible in the next 10 days
SCOUT X-4 DEB details
Identifier
40592, 1964-051F
Orbit
LEO
Last TLE update4 days ago
Origin
Flag of USGSFC (US)
ManufacturerUnknown
MissionDecayed spacecraft
Bus & MotorUnknown
MassUnknown
Launch date (UTC)
1964-08-25 (60 years ago)
Launch vehicleUnknown
Launch site
Air Force Western Test Range (AFWTR)
Object type
Payload
Rocket body
Debris
Shape & HBRUnknown
Radar Cross SectionSmall (<0.1 m²)

Expand to show TLE details & history

TLE from 4 days ago
0 SCOUT X-4 DEB
1 40592U 64051F   24352.60138592  .08450022  00000-0  59667-1 0  9991
2 40592  79.8265 199.9047 0012279  48.9665 311.2647 15.69206313499313
Epoch: 2024-12-17T14:25Z
Definitive object data (Epoch: 2024-12-17T14:25:59.743Z)
Latitude0.00003°
Longitude-103.30183°
Altitude358.776 km
Speed7.697 km/s
True Right ascension13h 19m 37s
True Declination0° 00' 00"
Sunlit
Object was in daylight at TLE epoch
Visualization observer readout
Observer readout values are unavailable because the object's trajectory could not be propagated. This is usually caused when the trajectory data is faulty or the object's orbit has decayed.
Visualization observer readout
Observer readout values are unavailable because the object's trajectory could not be propagated. This is usually caused when the trajectory data is faulty or the object's orbit has decayed.
Orbital elements
Apogee altitude366.483 km
Perigee altitude349.94 km
Semi-major axis6,736.349 km
Eccentricity0.0012279
Inclination79.8265°
RAAN199.9047°
Arg. of periapsis48.9665°
True anomaly311.15883°
Mean anomaly311.2647°
Eccentric anomaly311.21177°
Mean motion3.9256 °/min
BSTAR0.059667
Orbital period91.71 mins
Loading maneuver chart data...
Loading historical data...
Loading historical data...
Loading historical data...
Loading historical data...
Loading historical data...
Loading historical data...
Loading historical data...

SCOUT X-4 DEB Visibility forecast

Observer location: undefined°, undefined

SCOUT X-4 DEB is not visible in the next 10 days
Span
Click to sort rows by Start time (UTC) header in descending order
Start Az.
Max El. time (UTC)
Max El. Az.
Max El.
End time (UTC)
End Az.
|